This is the latest recevied weather packets stored in our database for station/object SR9NSK-1. If no packets are shown the sender has not sent any weather packets the latest 1 day(s).
| Time | Temp. | Humidity | Pressure | Rain* | Wind** | Luminosity | Snow |
|---|---|---|---|---|---|---|---|
| 1778026793 | 9.44° C | 56% | 867.3 hPa | - | 7.15 m/s, 140° | - | - |
| 1778026673 | 9.44° C | 56% | 867.3 hPa | - | 8.49 m/s, 153° | - | - |
| 1778026553 | 9.44° C | 56% | 867.2 hPa | - | 8.49 m/s, 136° | - | - |
| 1778026431 | 9.44° C | 56% | 867.2 hPa | - | 9.39 m/s, 147° | - | - |
| 1778026311 | 9.44° C | 56% | 867.3 hPa | - | 8.94 m/s, 150° | - | - |
| 1778026191 | 9.44° C | 56% | 867.3 hPa | - | 9.83 m/s, 151° | - | - |
| 1778026071 | 9.44° C | 56% | 867.3 hPa | - | 10.28 m/s, 156° | - | - |
| 1778025952 | 9.44° C | 55% | 867.3 hPa | - | 8.49 m/s, 152° | - | - |
| 1778025832 | 9.44° C | 55% | 867.3 hPa | - | 9.83 m/s, 154° | - | - |
| 1778025712 | 9.44° C | 55% | 867.3 hPa | - | 10.28 m/s, 159° | - | - |
| 1778025592 | 9.44° C | 55% | 867.5 hPa | - | 9.39 m/s, 162° | - | - |
| 1778025472 | 9.44° C | 55% | 867.6 hPa | - | 8.05 m/s, 143° | - | - |
| 1778025352 | 9.44° C | 55% | 867.6 hPa | - | 9.39 m/s, 152° | - | - |
| 1778025230 | 9.44° C | 55% | 867.6 hPa | - | 7.6 m/s, 147° | - | - |
| 1778025110 | 9.44° C | 55% | 867.6 hPa | - | 8.05 m/s, 140° | - | - |
| 1778024990 | 10° C | 55% | 867.6 hPa | - | 7.15 m/s, 146° | - | - |
| 1778024870 | 10° C | 55% | 867.7 hPa | - | 7.15 m/s, 152° | - | - |
| 1778024750 | 10° C | 54% | 867.7 hPa | - | 7.15 m/s, 139° | - | - |
| 1778024621 | 10° C | 54% | 867.7 hPa | - | 6.26 m/s, 124° | - | - |
| 1778024501 | 10° C | 54% | 867.6 hPa | - | 7.15 m/s, 126° | - | - |
| 1778024381 | 10° C | 54% | 867.7 hPa | - | 7.15 m/s, 142° | - | - |
| 1778024261 | 10° C | 54% | 867.7 hPa | - | 7.6 m/s, 120° | - | - |
| 1778024141 | 10° C | 54% | 867.7 hPa | - | 7.15 m/s, 129° | - | - |
| 1778024019 | 10° C | 54% | 867.8 hPa | - | 8.05 m/s, 135° | - | - |
| 1778023899 | 10° C | 54% | 867.8 hPa | - | 7.15 m/s, 141° | - | - |
* Rain since midnight (hover to see other rain measurements)
** Current wind speed in m/s (hover to see current wind gust speed)